| time (UTC) | temp F | wind direction | speed MPH | gust MPH | rain 1hr in | rain 24hr in | rain mn in | humidity % | barometer mb |
| 20260510025549 | 79 | 113 | 1.0 | 4.0 | 0.00 | 0.00 | 0.00 | 67 | 1008.4 |
| 20260510024549 | 79 | 113 | 1.0 | 3.0 | 0.00 | 0.00 | 0.00 | 67 | 1008.4 |
| 20260510023549 | 79 | 113 | 1.0 | 3.0 | 0.00 | 0.00 | 0.00 | 66 | 1008.2 |
| 20260510022549 | 79 | 113 | 1.0 | 3.0 | 0.00 | 0.00 | 0.00 | 65 | 1008.2 |
| 20260510021549 | 80 | 0.0 | 2.0 | 0.00 | 0.00 | 0.00 | 64 | 1008.0 | |
| 20260510020549 | 80 | 0.0 | 2.0 | 0.00 | 0.00 | 0.00 | 63 | 1007.9 | |
| 20260510015549 | 80 | 0.0 | 3.0 | 0.00 | 0.00 | 0.00 | 62 | 1007.8 | |
| 20260510014549 | 81 | 0.0 | 1.0 | 0.00 | 0.00 | 0.00 | 61 | 1007.8 | |
| 20260510013609 | 81 | 0.0 | 2.0 | 0.00 | 0.00 | 0.00 | 60 | 1007.7 | |
| 20260510012549 | 82 | 0.0 | 1.0 | 0.00 | 0.00 | 0.00 | 59 | 1007.5 | |
| 20260510011549 | 82 | 135 | 1.0 | 2.0 | 0.00 | 0.00 | 0.00 | 58 | 1007.4 |
| 20260510010549 | 82 | 0.0 | 2.0 | 0.00 | 0.00 | 0.00 | 57 | 1007.3 | |
| 20260510005609 | 83 | 135 | 1.0 | 2.0 | 0.00 | 0.00 | 0.00 | 55 | 1007.2 |
| 20260510004549 | 84 | 135 | 1.0 | 2.0 | 0.00 | 0.00 | 0.00 | 53 | 1007.2 |
| 20260510003609 | 84 | 113 | 1.0 | 2.0 | 0.00 | 0.00 | 0.00 | 53 | 1007.3 |
| 20260510002549 | 84 | 90 | 1.0 | 3.0 | 0.00 | 0.00 | 0.00 | 53 | 1007.2 |
| 20260510001549 | 85 | 90 | 1.0 | 3.0 | 0.00 | 0.00 | 0.00 | 53 | 1007.3 |
| 20260510000549 | 85 | 0.0 | 0.0 | 0.00 | 0.00 | 0.00 | 53 | 1007.2 | |
| 20260509235549 | 85 | 45 | 1.0 | 2.0 | 0.00 | 0.00 | 0.00 | 52 | 1007.2 |
| 20260509234549 | 86 | 45 | 1.0 | 3.0 | 0.00 | 0.00 | 0.00 | 53 | 1007.2 |
| 20260509233549 | 86 | 45 | 1.0 | 3.0 | 0.00 | 0.00 | 0.00 | 52 | 1007.2 |
| 20260509232549 | 86 | 45 | 1.0 | 3.0 | 0.00 | 0.00 | 0.00 | 53 | 1007.3 |
| 20260509231549 | 86 | 113 | 2.0 | 4.0 | 0.00 | 0.00 | 0.00 | 52 | 1007.3 |
| 20260509230549 | 87 | 135 | 2.0 | 7.0 | 0.00 | 0.00 | 0.00 | 52 | 1007.4 |
| 20260509225549 | 86 | 113 | 1.0 | 4.0 | 0.00 | 0.00 | 0.00 | 53 | 1007.4 |
| 20260509224609 | 87 | 68 | 1.0 | 3.0 | 0.00 | 0.00 | 0.00 | 52 | 1007.3 |
| 20260509223549 | 89 | 113 | 3.0 | 10.0 | 0.00 | 0.00 | 0.00 | 52 | 1007.3 |
| 20260509222549 | 89 | 135 | 2.0 | 9.0 | 0.00 | 0.00 | 0.00 | 52 | 1007.4 |
| 20260509221549 | 89 | 113 | 1.0 | 4.0 | 0.00 | 0.00 | 0.00 | 52 | 1007.2 |
| 20260509220549 | 91 | 113 | 1.0 | 6.0 | 0.00 | 0.00 | 0.00 | 50 | 1007.3 |
| 20260509215609 | 91 | 113 | 2.0 | 6.0 | 0.00 | 0.00 | 0.00 | 53 | 1007.3 |
| 20260509214549 | 90 | 113 | 1.0 | 3.0 | 0.00 | 0.00 | 0.00 | 53 | 1007.5 |
| 20260509213549 | 90 | 90 | 1.0 | 4.0 | 0.00 | 0.00 | 0.00 | 53 | 1007.5 |
| 20260509212549 | 90 | 113 | 2.0 | 7.0 | 0.00 | 0.00 | 0.00 | 55 | 1007.7 |
| 20260509211549 | 89 | 113 | 2.0 | 11.0 | 0.00 | 0.00 | 0.00 | 54 | 1007.6 |
| 20260509210549 | 91 | 90 | 1.0 | 3.0 | 0.00 | 0.00 | 0.00 | 55 | 1007.9 |
| 20260509205609 | 88 | 90 | 2.0 | 6.0 | 0.00 | 0.00 | 0.00 | 57 | 1008.0 |
| 20260509204549 | 91 | 113 | 2.0 | 9.0 | 0.00 | 0.00 | 0.00 | 54 | 1008.1 |
| 20260509203609 | 90 | 68 | 2.0 | 4.0 | 0.00 | 0.00 | 0.00 | 54 | 1008.3 |
| 20260509202609 | 90 | 90 | 2.0 | 4.0 | 0.00 | 0.00 | 0.00 | 51 | 1008.5 |
| 20260509201549 | 90 | 90 | 1.0 | 3.0 | 0.00 | 0.00 | 0.00 | 58 | 1008.6 |
| 20260509200549 | 90 | 45 | 1.0 | 3.0 | 0.00 | 0.00 | 0.00 | 54 | 1008.6 |
| 20260509195609 | 88 | 135 | 2.0 | 6.0 | 0.00 | 0.00 | 0.00 | 60 | 1008.6 |
| 20260509194549 | 88 | 315 | 3.0 | 10.0 | 0.00 | 0.00 | 0.00 | 58 | 1008.7 |
| 20260509193549 | 90 | 113 | 1.0 | 4.0 | 0.00 | 0.00 | 0.00 | 58 | 1008.8 |
| 20260509192548 | 85 | 315 | 2.0 | 6.0 | 0.00 | 0.00 | 0.00 | 61 | 1008.9 |
| 20260509191548 | 87 | 0 | 2.0 | 7.0 | 0.00 | 0.00 | 0.00 | 62 | 1009.0 |
| 20260509190548 | 86 | 293 | 2.0 | 6.0 | 0.00 | 0.00 | 0.00 | 60 | 1009.1 |
| 20260509185608 | 87 | 23 | 2.0 | 6.0 | 0.00 | 0.00 | 0.00 | 60 | 1009.1 |
| 20260509184548 | 87 | 315 | 2.0 | 4.0 | 0.00 | 0.00 | 0.00 | 62 | 1009.1 |
| 20260509183629 | 86 | 23 | 1.0 | 7.0 | 0.00 | 0.00 | 0.00 | 65 | 1009.2 |
| 20260509182608 | 86 | 0 | 2.0 | 7.0 | 0.00 | 0.00 | 0.00 | 61 | 1009.2 |
| 20260509181548 | 86 | 23 | 2.0 | 5.0 | 0.00 | 0.00 | 0.00 | 65 | 1009.3 |
| 20260509180548 | 85 | 23 | 3.0 | 12.0 | 0.00 | 0.00 | 0.00 | 63 | 1009.5 |
| 20260509175548 | 84 | 338 | 3.0 | 10.0 | 0.00 | 0.00 | 0.00 | 68 | 1009.5 |
| 20260509174549 | 85 | 0 | 2.0 | 5.0 | 0.00 | 0.00 | 0.00 | 65 | 1009.6 |
| 20260509173548 | 84 | 0 | 1.0 | 4.0 | 0.00 | 0.00 | 0.00 | 66 | 1009.7 |
| 20260509172609 | 83 | 23 | 2.0 | 8.0 | 0.00 | 0.00 | 0.00 | 67 | 1009.9 |
| 20260509171548 | 83 | 0 | 2.0 | 8.0 | 0.00 | 0.00 | 0.00 | 68 | 1009.9 |
| 20260509170549 | 82 | 23 | 2.0 | 8.0 | 0.00 | 0.00 | 0.00 | 68 | 1009.9 |
| 20260509165548 | 81 | 23 | 2.0 | 8.0 | 0.00 | 0.00 | 0.00 | 70 | 1010.0 |
| 20260509164548 | 81 | 23 | 2.0 | 7.0 | 0.00 | 0.00 | 0.00 | 72 | 1010.0 |
| 20260509163549 | 80 | 68 | 2.0 | 7.0 | 0.00 | 0.00 | 0.00 | 71 | 1010.0 |
| 20260509162548 | 80 | 23 | 3.0 | 5.0 | 0.00 | 0.00 | 0.00 | 72 | 1010.1 |
| 20260509161548 | 79 | 338 | 2.0 | 5.0 | 0.00 | 0.00 | 0.00 | 72 | 1009.9 |
| 20260509160548 | 78 | 0 | 3.0 | 9.0 | 0.00 | 0.00 | 0.00 | 74 | 1010.0 |
| 20260509155548 | 77 | 315 | 4.0 | 10.0 | 0.00 | 0.00 | 0.00 | 76 | 1010.0 |
| 20260509154548 | 77 | 23 | 4.0 | 11.0 | 0.00 | 0.00 | 0.00 | 76 | 1010.0 |
| 20260509153548 | 77 | 338 | 3.0 | 10.0 | 0.00 | 0.00 | 0.00 | 77 | 1009.8 |
| 20260509152548 | 76 | 23 | 5.0 | 12.0 | 0.00 | 0.00 | 0.00 | 78 | 1009.8 |
| 20260509151548 | 76 | 315 | 3.0 | 10.0 | 0.00 | 0.00 | 0.00 | 77 | 1009.8 |
| 20260509150548 | 76 | 23 | 4.0 | 10.0 | 0.00 | 0.00 | 0.00 | 77 | 1009.8 |
| 20260509145609 | 76 | 338 | 4.0 | 10.0 | 0.00 | 0.00 | 0.00 | 79 | 1009.9 |
| 20260509144609 | 75 | 0 | 4.0 | 10.0 | 0.00 | 0.00 | 0.00 | 80 | 1009.8 |
| 20260509143548 | 74 | 23 | 5.0 | 10.0 | 0.00 | 0.00 | 0.00 | 81 | 1009.8 |
| 20260509142548 | 74 | 23 | 3.0 | 9.0 | 0.00 | 0.00 | 0.00 | 81 | 1009.7 |
| 20260509141548 | 74 | 315 | 2.0 | 7.0 | 0.00 | 0.00 | 0.00 | 82 | 1009.7 |
| 20260509140548 | 73 | 0 | 3.0 | 9.0 | 0.00 | 0.00 | 0.00 | 83 | 1009.6 |
| 20260509135548 | 73 | 338 | 2.0 | 4.0 | 0.00 | 0.00 | 0.00 | 85 | 1009.6 |
| 20260509134548 | 72 | 338 | 3.0 | 8.0 | 0.00 | 0.00 | 0.00 | 85 | 1009.5 |
| 20260509133608 | 72 | 0 | 2.0 | 6.0 | 0.00 | 0.00 | 0.00 | 86 | 1009.4 |
| 20260509132548 | 71 | 338 | 3.0 | 8.0 | 0.00 | 0.00 | 0.00 | 87 | 1009.3 |
| 20260509131548 | 71 | 338 | 3.0 | 5.0 | 0.00 | 0.00 | 0.00 | 88 | 1009.2 |
| 20260509130549 | 71 | 0 | 1.0 | 5.0 | 0.00 | 0.00 | 0.00 | 89 | 1009.2 |
| 20260509125548 | 70 | 23 | 1.0 | 4.0 | 0.00 | 0.00 | 0.00 | 89 | 1009.1 |
| 20260509124548 | 70 | 0.0 | 2.0 | 0.00 | 0.00 | 0.00 | 90 | 1009.1 | |
| 20260509123548 | 70 | 23 | 1.0 | 4.0 | 0.00 | 0.00 | 0.00 | 91 | 1009.2 |
| 20260509122548 | 69 | 0.0 | 1.0 | 0.00 | 0.00 | 0.00 | 91 | 1009.1 | |
| 20260509121548 | 69 | 0.0 | 1.0 | 0.00 | 0.00 | 0.00 | 91 | 1009.1 | |
| 20260509120608 | 69 | 0.0 | 0.0 | 0.00 | 0.00 | 0.00 | 90 | 1009.1 | |
| 20260509115608 | 69 | 0.0 | 0.0 | 0.00 | 0.00 | 0.00 | 90 | 1009.1 | |
| 20260509114548 | 69 | 0.0 | 1.0 | 0.00 | 0.00 | 0.00 | 90 | 1008.8 | |
| 20260509113548 | 70 | 0.0 | 2.0 | 0.00 | 0.00 | 0.00 | 89 | 1008.5 | |
| 20260509112548 | 70 | 0.0 | 1.0 | 0.00 | 0.00 | 0.00 | 89 | 1008.4 | |
| 20260509111548 | 70 | 135 | 2.0 | 3.0 | 0.00 | 0.00 | 0.00 | 89 | 1008.3 |
| 20260509110548 | 71 | 135 | 2.0 | 4.0 | 0.00 | 0.00 | 0.00 | 89 | 1008.2 |
| 20260509105628 | 71 | 0.0 | 0.0 | 0.00 | 0.00 | 0.00 | 88 | 1008.1 | |
| 20260509104548 | 71 | 0.0 | 0.0 | 0.00 | 0.00 | 0.00 | 88 | 1008.1 | |
| 20260509103548 | 71 | 113 | 1.0 | 2.0 | 0.00 | 0.00 | 0.00 | 88 | 1008.2 |
| 20260509102548 | 71 | 0.0 | 2.0 | 0.00 | 0.00 | 0.00 | 88 | 1008.0 | |
| 20260509101548 | 71 | 113 | 1.0 | 3.0 | 0.00 | 0.00 | 0.00 | 88 | 1007.9 |
| 20260509100548 | 71 | 0.0 | 0.0 | 0.00 | 0.00 | 0.00 | 88 | 1008.1 | |
| 20260509095548 | 71 | 0.0 | 1.0 | 0.00 | 0.00 | 0.00 | 88 | 1008.0 | |
| 20260509094548 | 71 | 0.0 | 0.0 | 0.00 | 0.00 | 0.00 | 88 | 1007.9 | |
| 20260509093548 | 71 | 0.0 | 1.0 | 0.00 | 0.00 | 0.00 | 88 | 1007.7 | |
| 20260509092548 | 70 | 0.0 | 1.0 | 0.00 | 0.00 | 0.00 | 88 | 1007.4 | |
| 20260509091548 | 70 | 113 | 3.0 | 7.0 | 0.00 | 0.00 | 0.00 | 88 | 1006.6 |
| 20260509090548 | 70 | 135 | 5.0 | 10.0 | 0.00 | 0.00 | 0.00 | 88 | 1006.2 |
| 20260509085608 | 70 | 135 | 7.0 | 11.0 | 0.00 | 0.00 | 0.00 | 88 | 1005.9 |
| 20260509084548 | 70 | 135 | 5.0 | 10.0 | 0.00 | 0.00 | 0.00 | 88 | 1006.5 |
| 20260509083548 | 70 | 135 | 4.0 | 9.0 | 0.00 | 0.00 | 0.00 | 87 | 1007.0 |
| 20260509082548 | 70 | 158 | 5.0 | 10.0 | 0.00 | 0.00 | 0.00 | 87 | 1007.3 |
| 20260509081628 | 70 | 158 | 3.0 | 5.0 | 0.00 | 0.00 | 0.00 | 86 | 1008.1 |
| 20260509080548 | 71 | 135 | 4.0 | 7.0 | 0.00 | 0.00 | 0.00 | 86 | 1008.4 |
| 20260509075548 | 71 | 180 | 3.0 | 6.0 | 0.00 | 0.01 | 0.00 | 86 | 1008.7 |
| 20260509074548 | 71 | 158 | 2.0 | 4.0 | 0.00 | 0.01 | 0.00 | 86 | 1009.0 |
| 20260509073608 | 71 | 203 | 1.0 | 4.0 | 0.00 | 0.01 | 0.00 | 85 | 1009.4 |
| 20260509072548 | 71 | 225 | 1.0 | 4.0 | 0.00 | 0.01 | 0.00 | 86 | 1009.7 |
| 20260509071548 | 71 | 248 | 2.0 | 4.0 | 0.00 | 0.01 | 0.00 | 85 | 1009.8 |
| 20260509070548 | 71 | 225 | 2.0 | 5.0 | 0.00 | 0.01 | 0.00 | 85 | 1009.7 |
| 20260509065548 | 71 | 248 | 2.0 | 6.0 | 0.00 | 0.01 | 0.00 | 85 | 1009.5 |
| 20260509064548 | 71 | 225 | 2.0 | 5.0 | 0.00 | 0.01 | 0.00 | 85 | 1009.2 |
| 20260509063628 | 71 | 225 | 3.0 | 5.0 | 0.00 | 0.01 | 0.00 | 85 | 1009.2 |
| 20260509062608 | 71 | 203 | 2.0 | 4.0 | 0.00 | 0.01 | 0.00 | 85 | 1009.4 |
| 20260509061548 | 71 | 180 | 2.0 | 4.0 | 0.00 | 0.01 | 0.00 | 85 | 1009.3 |
| 20260509060548 | 71 | 203 | 1.0 | 3.0 | 0.00 | 0.01 | 0.00 | 84 | 1009.8 |
| 20260509055548 | 71 | 0.0 | 1.0 | 0.00 | 0.01 | 0.00 | 83 | 1009.8 | |
| 20260509054608 | 72 | 203 | 1.0 | 3.0 | 0.00 | 0.01 | 0.00 | 83 | 1010.2 |
| 20260509053608 | 72 | 0.0 | 0.0 | 0.00 | 0.01 | 0.00 | 82 | 1010.0 | |
| 20260509052548 | 72 | 0.0 | 2.0 | 0.00 | 0.01 | 0.00 | 82 | 1010.7 | |
| 20260509051548 | 72 | 203 | 2.0 | 3.0 | 0.00 | 0.01 | 0.00 | 82 | 1010.3 |
| 20260509050548 | 72 | 203 | 2.0 | 4.0 | 0.00 | 0.01 | 0.00 | 82 | 1009.3 |
| 20260509045549 | 72 | 225 | 1.0 | 4.0 | 0.00 | 0.01 | 0.01 | 81 | 1009.3 |
| 20260509044549 | 72 | 203 | 3.0 | 10.0 | 0.00 | 0.01 | 0.01 | 80 | 1008.7 |
| 20260509043549 | 72 | 180 | 2.0 | 5.0 | 0.00 | 0.01 | 0.01 | 80 | 1009.2 |
| 20260509042549 | 72 | 158 | 3.0 | 7.0 | 0.00 | 0.01 | 0.01 | 79 | 1008.9 |
| 20260509041549 | 73 | 113 | 2.0 | 6.0 | 0.00 | 0.01 | 0.01 | 78 | 1009.4 |
| 20260509040609 | 73 | 113 | 3.0 | 6.0 | 0.00 | 0.01 | 0.01 | 78 | 1009.5 |
| 20260509035549 | 73 | 0.0 | 0.0 | 0.00 | 0.01 | 0.01 | 78 | 1010.1 | |
| 20260509034609 | 73 | 0.0 | 0.0 | 0.00 | 0.01 | 0.01 | 78 | 1009.9 | |
| 20260509033549 | 73 | 113 | 1.0 | 3.0 | 0.00 | 0.01 | 0.01 | 78 | 1009.6 |
| 20260509032549 | 73 | 0.0 | 1.0 | 0.00 | 0.01 | 0.01 | 78 | 1009.3 | |
| 20260509031549 | 73 | 113 | 2.0 | 6.0 | 0.00 | 0.01 | 0.01 | 78 | 1009.2 |
| 20260509030549 | 73 | 113 | 3.0 | 7.0 | 0.00 | 0.01 | 0.01 | 78 | 1009.3 |